#timestamp,LO_Frequency,Hit,StdDev 
1633752015.4,286047002.5,N
1633752035.2,286047002.2,N
1633752055.1,286047002.1,N
1633752056.0,286047002.1,N
1633752075.8,286047002.0,N
1633752095.7,286047001.4,N
1633752115.5,286047004.1,Y
1633752135.3,286047000.2,P
1633752155.2,286046999.8,N
1633752175.0,286046999.7,N
1633752175.9,286046999.7,N
1633752195.7,286047002.5,N
1633752215.6,286047000.6,N
1633752235.4,286047000.2,N
1633752255.3,286047000.3,N
1633752275.1,286046998.3,N
1633752295.8,286046998.7,N
1633752315.7,286046998.4,N
1633752335.5,286047000.3,N
1633752355.4,286047000.9,N
1633752375.2,286047000.5,N
1633752395.0,286047002.7,N
1633752395.9,286047002.7,N
1633752415.8,286047002.3,N
1633752435.6,286047002.3,N
1633752455.4,286047002.6,N
1633752475.3,286047000.2,N
1633752495.1,286046999.9,N
1633752515.9,286047002.5,N
1633752535.7,286046999.8,N
1633752555.5,286046999.8,N
1633752575.4,286047002.6,N
1633752595.2,286046999.8,N
1633752615.1,286046999.7,N
1633752616.0,286046999.7,N
1633752635.8,286047002.1,N
1633752655.6,286047001.7,N
1633752675.5,286047003.8,N
1633752695.3,286047004.2,N
1633752715.2,286047005.9,Y
1633752735.9,286047003.9,P
1633752755.7,286047004.4,N
1633752775.6,286047003.7,N
1633752795.4,286047004.3,Y
1633752815.3,286046998.5,P
1633752835.1,286046998.2,N
1633752836.0,286046998.2,N
1633752855.8,286047001.1,N
1633752875.7,286047000.9,N
1633752895.5,286047000.3,N
1633752915.3,286047000.0,N
1633752935.2,286046998.2,N
1633752955.0,286047000.2,N
1633752955.9,286047000.2,N
1633752975.8,286047000.1,N
1633752995.6,286047002.7,N
1633753015.4,286047000.3,N
1633753035.3,286047002.2,N
1633753055.1,286047000.0,N
1633753075.9,286046999.7,N
1633753095.7,286047002.3,N
1633753115.5,286046999.1,N
1633753135.4,286046999.6,N
1633753155.2,286046997.1,N
1633753175.0,286046998.2,N
1633753175.9,286046998.2,N
1633753195.8,286047001.2,N
1633753215.6,286047001.1,N
1633753235.5,286046999.6,N
1633753255.3,286046997.0,N
1633753275.1,286046997.1,N
1633753295.9,286046996.9,N
1633753315.7,286046999.0,N
1633753335.5,286046998.8,N
1633753355.4,286046998.2,N
1633753375.2,286047000.7,N
1633753395.1,286047001.2,N
1633753396.0,286047001.2,N
1633753415.8,286047000.6,N
1633753435.6,286047002.1,N
1633753455.5,286047002.0,N
1633753475.3,286047000.0,N
1633753495.2,286047000.0,N
1633753515.9,286046998.5,N
1633753535.7,286047001.1,N
1633753555.6,286046998.8,N
1633753575.4,286046999.4,N
1633753595.2,286046997.7,N
1633753615.1,286046995.3,Y
1633753616.0,286046995.3,P
1633753635.8,286046997.3,N
1633753655.7,286046997.9,N
1633753675.5,286046997.6,N
1633753695.3,286046997.5,N
1633753715.2,286046996.8,N
1633753735.0,286046996.8,N
1633753735.9,286046996.8,N
1633753755.8,286046997.8,N
1633753775.6,286046997.9,N
1633753795.4,286046997.6,N
1633753815.3,286046998.0,N
1633753835.1,286046997.7,N
1633753855.9,286046996.2,Y
1633753875.7,286046998.8,P
1633753895.5,286046998.4,N
1633753915.4,286046999.1,N
1633753935.2,286046996.9,Y
1633753955.0,286046998.9,P
1633753955.9,286046998.9,P
1633753975.8,286046998.8,P
1633753995.6,286046996.6,Y
1633754015.5,286047000.9,P
1633754035.3,286047002.5,N
1633754055.1,286047003.7,N
1633754075.9,286047004.1,N
1633754095.7,286047003.1,N
1633754115.5,286047003.7,N
1633754135.4,286047001.6,N
1633754155.2,286047002.5,N
1633754175.1,286047000.1,N
1633754176.0,286047000.1,N
1633754195.8,286046999.7,N
1633754215.7,286047002.4,N
1633754235.5,286047000.0,N
1633754255.3,286047000.6,N
1633754275.2,286047001.1,N
1633754295.9,286046998.5,N
1633754315.7,286046998.2,N
1633754335.6,286046998.4,N
1633754355.4,286046998.3,N
1633754375.3,286047000.8,N
1633754395.1,286047000.3,N
1633754396.0,286047000.3,N
1633754415.8,286046999.8,N
1633754435.7,286047002.6,N
1633754455.5,286047002.2,N
1633754475.3,286047004.4,N
1633754495.2,286047003.6,N
1633754515.0,286047003.9,N
1633754515.9,286047003.9,N
1633754535.8,286047003.6,N
1633754555.6,286047003.7,N
1633754575.4,286047004.0,N
1633754595.3,286047004.3,N
1633754615.1,286047001.4,N
1633754635.8,286047001.9,N
1633754655.7,286047003.8,N
1633754675.5,286047004.4,N
1633754695.4,286047004.4,N
1633754715.2,286047001.3,N
1633754735.0,286047003.6,N
1633754735.9,286047003.6,N
1633754755.8,286047003.2,N
1633754775.6,286047003.8,N
1633754795.4,286047003.7,N
1633754815.3,286047002.0,N
1633754835.1,286046999.7,N
1633754855.9,286046999.7,N
1633754875.2,286046999.9,N
1633754895.1,286046999.8,N
1633754896.0,286046999.8,N
1633754915.8,286047002.5,N
1633754935.6,286047002.0,N
1633754955.5,286047002.0,N
1633754975.3,286047000.4,N
1633754995.2,286047000.6,N
1633755015.9,286046998.1,N
1633755035.7,286047000.6,N
1633755055.6,286047000.2,N
1633755075.4,286047002.6,N
1633755095.2,286047001.9,N
1633755115.1,286047002.7,N
1633755116.0,286047002.7,N
1633755135.8,286047000.2,N
1633755155.7,286047002.2,N
1633755175.5,286047002.0,N
1633755195.3,286047001.8,N
1633755215.2,286047002.2,N
1633755235.0,286047002.7,N
1633755235.9,286047002.7,N
1633755255.7,286047000.3,N
1633755275.6,286047000.8,N
1633755295.4,286046998.1,N
1633755315.3,286046998.2,N
1633755335.1,286046998.3,N
1633755336.0,286046998.3,N
1633755355.8,286046998.6,N
1633755375.7,286046998.6,N
1633755395.5,286046998.6,N
1633755415.4,286046998.8,N
1633755435.2,286046998.4,N
1633755455.0,286046998.7,N
1633755455.9,286046998.7,N
1633755475.8,286046998.7,N
1633755495.6,286046998.5,N
1633755515.4,286046997.0,N
1633755535.3,286046999.2,N
1633755555.1,286046999.1,N
1633755575.9,286046999.0,N
1633755595.7,286046997.2,N
